CW9688 Weather Reports


time (UTC)temp
C
wind
direction
speed
KPH
gust
KPH
rain 1hr
cm
rain 24hr
cm
rain mn
cm
humidity
%
barometer
mb
20260903004305 27 331 11.3 22.5 0.00 0.00 0.00 31 1013.7
20260903003804 27 315 14.5 25.7 0.00 0.00 0.00 30 1013.7
20260903002804 27 337 9.7 24.1 0.00 0.00 0.00 29 1013.7
20260903001304 28 314 16.1 32.2 0.00 0.00 0.00 28 1013.7
20260903000303 29 350 11.3 19.3 0.00 0.00 0.00 28 1013.7
20260902235804 29 333 9.7 19.3 0.00 0.00 0.00 29 1013.7
20260902234803 28 345 9.7 19.3 0.00 0.00 0.00 31 1013.7
20260902233304 29 5 6.4 16.1 0.00 0.00 0.00 28 1013.7
20260902232306 29 60 4.8 9.7 0.00 0.00 0.00 28 1013.7
20260902231804 29 56 3.2 11.3 0.00 0.00 0.00 28 1013.7
20260902231304 29 51 4.8 9.7 0.00 0.00 0.00 28 1013.7
20260902230804 29 60 3.2 11.3 0.00 0.00 0.00 27 1013.7
20260902230304 30 95 3.2 11.3 0.00 0.00 0.00 27 1013.7
20260902225804 30 105 6.4 14.5 0.00 0.00 0.00 27 1013.7
20260902224304 30 130 9.7 20.9 0.00 0.00 0.00 26 1013.7
20260902223804 30 96 16.1 22.5 0.00 0.00 0.00 25 1013.7
20260902223304 31 117 14.5 24.1 0.00 0.00 0.00 24 1013.7
20260902222804 31 122 9.7 32.2 0.00 0.00 0.00 25 1013.7
20260902220804 31 103 8.0 22.5 0.00 0.00 0.00 24 1013.7
20260902215804 31 68 11.3 20.9 0.00 0.00 0.00 24 1013.7
20260902213804 32 113 12.9 20.9 0.00 0.00 0.00 23 1013.7
20260902213304 32 154 9.7 16.1 0.00 0.00 0.00 21 1013.7
20260902212804 31 95 11.3 24.1 0.00 0.00 0.00 26 1013.7
20260902212306 31 85 8.0 16.1 0.00 0.00 0.00 24 1013.7
20260902211804 31 89 11.3 22.5 0.00 0.00 0.00 25 1013.7
20260902210304 32 74 14.5 22.5 0.00 0.00 0.00 23 1013.7
20260902205306 31 102 9.7 20.9 0.00 0.00 0.00 24 1013.7
20260902204804 32 113 4.8 19.3 0.00 0.00 0.00 23 1013.7
20260902204304 31 144 12.9 20.9 0.00 0.00 0.00 24 1013.7
20260902203804 31 130 12.9 25.7 0.00 0.00 0.00 22 1013.7
20260902203304 31 111 9.7 22.5 0.00 0.00 0.00 25 1013.7
20260902202306 31 119 8.0 19.3 0.00 0.00 0.00 22 1013.7
20260902201804 30 72 8.0 24.1 0.00 0.00 0.00 23 1013.7
20260902200804 31 104 19.3 27.4 0.00 0.00 0.00 24 1013.7
20260902200304 30 48 14.5 20.9 0.00 0.00 0.00 24 1013.7
20260902194803 31 104 9.7 19.3 0.00 0.00 0.00 23 1013.7
20260902193803 30 103 8.0 14.5 0.00 0.00 0.00 25 1013.7
20260902192306 30 96 9.7 19.3 0.00 0.00 0.00 24 1013.7
20260902191804 30 84 9.7 20.9 0.00 0.00 0.00 23 1013.7
20260902191305 31 107 9.7 19.3 0.00 0.00 0.00 24 1013.7
20260902190803 30 23 4.8 12.9 0.00 0.00 0.00 24 1013.7
20260902185306 30 141 4.8 19.3 0.00 0.00 0.00 26 1013.7
20260902184804 30 167 3.2 14.5 0.00 0.00 0.00 24 1013.7
20260902183804 29 85 4.8 12.9 0.00 0.00 0.00 25 1013.7
20260902182804 30 113 9.7 19.3 0.00 0.00 0.00 25 1013.7
20260902181804 30 85 6.4 20.9 0.00 0.00 0.00 25 1013.7
20260902181304 29 96 3.2 11.3 0.00 0.00 0.00 26 1013.7
20260902180804 29 121 4.8 12.9 0.00 0.00 0.00 27 1013.7
20260902180304 29 70 4.8 12.9 0.00 0.00 0.00 26 1013.7
20260902175803 29 100 6.4 14.5 0.00 0.00 0.00 27 1013.7
20260902174804 28 126 9.7 14.5 0.00 0.00 0.00 26 1013.7
20260902173803 28 136 4.8 12.9 0.00 0.00 0.00 26 1013.7
20260902171804 27 68 11.3 19.3 0.00 0.00 0.00 29 1013.7
20260902171304 27 98 8.0 19.3 0.00 0.00 0.00 31 1013.7
20260902165803 27 175 8.0 11.3 0.00 0.00 0.00 30 1013.7
20260902164304 27 97 8.0 12.9 0.00 0.00 0.00 31 1013.3
20260902163804 27 146 8.0 19.3 0.00 0.00 0.00 32 1013.3
20260902163303 27 167 9.7 16.1 0.00 0.00 0.00 34 1013.3
20260902162307 26 148 6.4 12.9 0.00 0.00 0.00 34 1013.3
20260902161805 26 138 8.0 14.5 0.00 0.00 0.00 36 1013.3
20260902160804 25 171 11.3 16.1 0.00 0.00 0.00 36 1013.3
20260902154804 25 176 8.0 16.1 0.00 0.00 0.00 38 1013.3
20260902153804 24 123 8.0 14.5 0.00 0.00 0.00 40 1013.3
20260902153304 23 163 8.0 11.3 0.00 0.00 0.00 42 1013.3
20260902151303 22 171 8.0 12.9 0.00 0.00 0.00 44 1013.3
20260902145306 21 162 4.8 11.3 0.00 0.00 0.00 49 1013.3
20260902144804 21 156 4.8 11.3 0.00 0.00 0.00 49 1013.3
20260902140804 18 183 4.8 11.3 0.00 0.00 0.00 57 1013.3
20260902140304 18 175 8.0 11.3 0.00 0.00 0.00 58 1013.3
20260902135805 18 175 4.8 9.7 0.00 0.00 0.00 59 1013.3
20260902134805 17 171 4.8 11.3 0.00 0.00 0.00 61 1013.3
20260902133304 17 170 6.4 11.3 0.00 0.00 0.00 63 1013.3
20260902132805 16 171 4.8 8.0 0.00 0.00 0.00 63 1013.3
20260902132307 16 169 3.2 9.7 0.00 0.00 0.00 63 1013.3
20260902131805 16 178 6.4 9.7 0.00 0.00 0.00 64 1013.3
20260902131305 16 186 4.8 9.7 0.00 0.00 0.00 64 1013.3
20260902130804 15 169 8.0 9.7 0.00 0.00 0.00 65 1013.3
20260902125805 14 172 3.2 8.0 0.00 0.00 0.00 68 1013.3
20260902123805 13 155 3.2 4.8 0.00 0.00 0.00 70 1013.3
20260902123304 13 155 3.2 4.8 0.00 0.00 0.00 72 1013.3
20260902122805 13 254 1.6 3.2 0.00 0.00 0.00 74 1013.3
20260902121804 13 254 1.6 3.2 0.00 0.00 0.00 75 1013.3
20260902121305 13 254 0.0 0.0 0.00 0.00 0.00 75 1013.3
20260902120804 13 254 0.0 0.0 0.00 0.00 0.00 74 1013.3
20260902115308 13 254 0.0 1.6 0.00 0.00 0.00 72 1013.3
20260902114805 14 254 0.0 1.6 0.00 0.00 0.00 72 1013.3
20260902113804 14 254 1.6 4.8 0.00 0.00 0.00 70 1013.3
20260902112805 14 254 0.0 0.0 0.00 0.00 0.00 69 1013.3
20260902112306 14 254 0.0 0.0 0.00 0.00 0.00 69 1013.3
20260902105805 14 254 0.0 3.2 0.00 0.00 0.00 69 1013.3
20260902105306 14 254 1.6 3.2 0.00 0.00 0.00 68 1013.3
20260902104805 14 254 0.0 1.6 0.00 0.00 0.00 67 1013.3
20260902103805 14 254 3.2 3.2 0.00 0.00 0.00 68 1013.3
20260902103305 14 254 1.6 3.2 0.00 0.00 0.00 67 1013.3
20260902102806 15 254 0.0 0.0 0.00 0.00 0.00 66 1013.3
20260902102307 15 254 1.6 3.2 0.00 0.00 0.00 67 1013.3
20260902101805 15 254 1.6 3.2 0.00 0.00 0.00 66 1013.3
20260902101304 15 254 0.0 1.6 0.00 0.00 0.00 65 1013.3
20260902094805 15 200 1.6 4.8 0.00 0.00 0.00 66 1013.3
20260902093305 16 200 0.0 4.8 0.00 0.00 0.00 61 1013.3
20260902092805 16 200 3.2 4.8 0.00 0.00 0.00 62 1013.3
20260902092305 16 200 4.8 4.8 0.00 0.00 0.00 63 1013.3
20260902091805 16 200 0.0 0.0 0.00 0.00 0.00 63 1013.3
20260902090305 16 200 3.2 4.8 0.00 0.00 0.00 61 1013.3
20260902085306 16 200 1.6 4.8 0.00 0.00 0.00 65 1013.3
20260902083305 16 200 1.6 3.2 0.00 0.00 0.00 62 1013.3
20260902082805 17 200 1.6 3.2 0.00 0.00 0.00 61 1013.3
20260902082309 17 200 0.0 1.6 0.00 0.00 0.00 60 1013.3
20260902073305 18 205 1.6 3.2 0.00 0.00 0.00 55 1013.3
20260902071804 18 281 3.2 8.0 0.00 0.00 0.00 57 1013.3
20260902070805 18 255 3.2 4.8 0.00 0.00 0.00 59 1013.3
20260902065805 17 302 1.6 3.2 0.00 0.00 0.00 61 1013.3
20260902065307 18 302 0.0 3.2 0.00 0.00 0.00 60 1013.3
20260902064305 18 244 1.6 3.2 0.00 0.00 0.00 59 1013.3
20260902060304 20 265 4.8 8.0 0.00 0.00 0.00 54 1013.3
20260902055804 20 272 6.4 12.9 0.00 0.00 0.00 54 1013.3
20260902055307 20 300 4.8 11.3 0.00 0.00 0.00 55 1013.3
20260902054804 20 303 4.8 11.3 0.00 0.00 0.00 55 1013.3
20260902054305 20 296 4.8 8.0 0.00 0.00 0.00 56 1013.3
20260902053805 19 340 3.2 8.0 0.00 0.00 0.00 57 1013.3
20260902053305 19 298 4.8 8.0 0.00 0.00 0.00 58 1013.3
20260902050805 21 319 1.6 9.7 0.00 0.00 0.00 54 1013.3
20260902050304 21 280 3.2 4.8 0.00 0.00 0.00 55 1013.3
20260902044304 21 12 1.6 4.8 0.00 0.00 0.00 55 1013.3
20260902043804 21 289 3.2 8.0 0.00 0.00 0.00 57 1013.3
20260902042805 20 32 4.8 8.0 0.00 0.00 0.00 57 1013.3
20260902042308 20 34 3.2 4.8 0.00 0.00 0.00 58 1013.3
20260902041805 20 49 3.2 4.8 0.00 0.00 0.00 58 1013.3
20260902041305 20 34 1.6 4.8 0.00 0.00 0.00 59 1013.3
20260902035805 20 51 3.2 4.8 0.00 0.00 0.00 59 1013.3
20260902034805 20 53 3.2 4.8 0.00 0.00 0.00 58 1013.3
20260902033805 20 29 1.6 3.2 0.00 0.00 0.00 56 1013.3
20260902033304 21 29 1.6 3.2 0.00 0.00 0.00 54 1013.3
20260902032306 21 15 1.6 3.2 0.00 0.00 0.00 53 1013.3
20260902030305 21 51 1.6 1.6 0.00 0.03 0.00 51 1013.3
20260902025804 22 51 0.0 1.6 0.00 0.05 0.00 49 1013.3
20260902025306 22 51 3.2 8.0 0.00 0.05 0.00 48 1013.3
20260902024805 22 43 3.2 4.8 0.00 0.05 0.00 47 1013.3
20260902023305 23 17 3.2 8.0 0.00 0.05 0.00 42 1013.3
20260902021804 24 52 8.0 16.1 0.00 0.05 0.00 42 1013.3
20260902021305 24 25 4.8 12.9 0.00 0.05 0.00 43 1013.3
20260902020804 24 15 9.7 12.9 0.00 0.05 0.00 45 1013.3
20260902020304 24 349 4.8 11.3 0.00 0.05 0.00 46 1013.3
20260902014305 24 350 9.7 14.5 0.00 0.05 0.00 52 1013.3
20260902013305 26 3 4.8 11.3 0.00 0.05 0.00 39 1013.3
20260902012804 26 335 3.2 4.8 0.00 0.05 0.00 38 1013.3
20260902012309 26 300 0.0 3.2 0.00 0.05 0.00 36 1013.3
20260902010306 26 19 0.0 4.8 0.00 0.18 0.00 37 1013.3
20260902005805 27 19 1.6 4.8 0.00 0.20 0.00 34 1013.3